Showing default

E-KAGAKU-1, 65942

Orbit data source: Space-Track

E-KAGAKU-1, 65942 is a Japanese payload satellite in LEO that was delivered to the ISS. Payload-class satellites include a variety of spacecraft equipped with specific instruments for various scientific and technological missions. These include communications satellites like Starlink; space stations such as the ISS; scientific satellites like the Hubble; Earth observation satellites from companies like Planet Labs, Umbra, and HawkEye 360; GPS; miniature CubeSats for education and research; and military/defense satellites.

Loading next visibility...
Identifier
65942, 1998-067XP
Orbit
LEO
Country
Flag of JPJP / JPN
Related business
Manufacturer
EKAG
Mission
Operational spacecraft
Bus & Motor
CUBESAT 1U, Unknown motor
Mass
1 kg wet, 1 kg dry
Launch date (UTC)
1998-11-20 (27 years ago)
Launch vehicle
FALCON 9
Launch site
Tyuratam Missile And Space Complex (TTMTR)
Object type
Payload
Rocket body
Debris
Shape & HBR
Unknown
Radar Cross Section
RCS unknown

Expand to show TLE details & history
Last TLE update: 13 hours ago

TLE from 13 hours ago
0 E-KAGAKU-1
1 65942U 98067XP  25291.25913949  .00093861  00000-0  15387-2 0  9990
2 65942  51.6328  57.0568 0003534 282.9538  77.1057 15.51671646  1220
Epoch: 2025-10-18T06:13Z
TLE epoch observation values (Epoch: 2025-10-18T06:13:09.651Z)
Latitude
-0.00003°
Longitude
-63.22616°
Altitude
412.052 km
Speed
7.665 km/s
True Right ascension
03h 48m 13s
True Declination
0° 00' 00"
Sunlit
Object was in full shadow at epoch
Visualization orbit readout
Latitude
Unknown
Longitude
Unknown
Altitude
Unknown
Speed
Unknown
Apparent Right ascension
Unknown
Apparent Declination
Unknown
Sunlit
N/A
Visualization observer readout
Local Sidereal Time
14:30:17
Azimuth
Unknown
Elevation
Unknown
Doppler factor
Unknown
Orbital elements
Apogee altitude
414.754 km
Perigee altitude
409.955 km
Semi-major axis
6,790.492 km
Eccentricity
0.00035
Inclination
51.6328°
RAAN
57.0568°
Arg. of periapsis
282.9538°
True anomaly
77.14518°
Mean anomaly
77.1057°
Eccentric anomaly
77.12544°
Mean motion
3.87875 °/min
Orbital period
92.81 mins
BSTAR
0.0015387
Loading maneuver chart data...
Computing Atmospheric mass density...

Documentation

Showing up to 5 results
|